GW2477 Weather Reports


time (UTC)temp
C
wind
direction
speed
KPH
gust
KPH
rain 1hr
cm
rain 24hr
cm
rain mn
cm
humidity
%
barometer
mb
20260504020017 9 169 4.8 12.9 0.00 0.00 0.00 89 1019.4
20260504014522 9 168 4.8 19.3 0.00 0.00 0.00 89 1019.0
20260504013005 9 165 9.7 19.3 0.00 0.00 0.00 90 1019.0
20260504011513 9 110 6.4 17.7 0.00 0.00 0.00 89 1018.9
20260504010025 9 91 8.0 19.3 0.00 0.00 0.00 89 1019.0
20260504004541 9 130 3.2 16.1 0.00 0.00 0.00 88 1018.8
20260504003010 9 140 6.4 19.3 0.00 0.00 0.00 88 1018.9
20260504001529 9 286 6.4 17.7 0.00 0.00 0.00 87 1018.9
20260504000004 9 151 9.7 19.3 0.00 0.00 0.00 88 1019.2
20260503234522 9 125 6.4 16.1 0.00 0.00 0.00 88 1019.2
20260503233059 9 121 4.8 16.1 0.00 0.00 0.00 88 1019.3
20260503231520 9 132 6.4 17.7 0.00 0.00 0.00 87 1019.6
20260503230006 10 142 1.6 16.1 0.00 0.00 0.00 87 1019.5
20260503224514 10 94 1.6 24.1 0.00 0.00 0.00 87 1019.7
20260503223056 10 68 1.6 12.9 0.00 0.00 0.00 86 1019.8
20260503221514 10 175 1.6 16.1 0.00 0.00 0.00 86 1019.9
20260503220055 10 46 1.6 14.5 0.00 0.00 0.00 86 1019.9
20260503214522 10 109 3.2 16.1 0.00 0.00 0.00 83 1019.7
20260503213012 10 138 8.0 17.7 0.00 0.00 0.00 86 1019.6
20260503211526 10 57 3.2 11.3 0.00 0.00 0.00 84 1019.6
20260503210054 10 132 4.8 12.9 0.00 0.00 0.00 83 1019.6
20260503204519 10 123 9.7 14.5 0.00 0.00 0.00 83 1019.4
20260503203024 10 97 4.8 14.5 0.00 0.00 0.00 82 1019.4
20260503201540 11 105 4.8 14.5 0.00 0.00 0.00 76 1019.3
20260503200023 11 111 4.8 11.3 0.00 0.00 0.00 52 1019.3
20260503194558 11 77 1.6 4.8 0.00 0.00 0.00 48 1019.1
20260503193033 11 62 0.0 8.0 0.00 0.00 0.00 48 1019.0
20260503191555 11 92 1.6 4.8 0.00 0.00 0.00 51 1018.9
20260503190036 11 56 0.0 3.2 0.00 0.00 0.00 54 1018.9
20260503184629 11 333 1.6 9.7 0.00 0.00 0.00 52 1018.8
20260503184503 11 27 3.2 9.7 0.00 0.00 0.00 52 1018.8
20260503183046 11 314 1.6 11.3 0.00 0.00 0.00 51 1018.5
20260503181516 11 355 1.6 8.0 0.00 0.00 0.00 55 1018.3
20260503180006 11 37 3.2 9.7 0.00 0.00 0.00 59 1018.3
20260503174531 11 68 1.6 4.8 0.00 0.00 0.00 60 1018.1
20260503173006 12 305 0.0 3.2 0.00 0.00 0.00 60 1017.9
20260503171517 12 101 0.0 6.4 0.00 0.00 0.00 60 1017.8
20260503081559 15 317 0.0 14.5 0.00 0.00 0.00 55 1017.8
20260503071507 14 301 0.0 8.0 0.00 0.00 0.00 58 1017.7
20260503054516 9 17 1.6 6.4 0.00 0.00 0.00 78 1017.9
20260503053059 9 267 0.0 3.2 0.00 0.00 0.00 76 1017.6
20260503053005 9 56 0.0 3.2 0.00 0.00 0.00 75 1017.6
20260503051533 9 39 0.0 4.8 0.00 0.00 0.00 73 1017.6
20260503050005 8 360 3.2 8.0 0.00 0.00 0.00 73 1017.8
20260503044527 8 227 0.0 0.0 0.00 0.00 0.00 78 1017.7
20260503043044 8 228 0.0 0.0 0.00 0.00 0.00 77 1017.6
20260503041513 8 232 0.0 3.2 0.00 0.00 0.00 75 1017.6
20260503040016 8 120 0.0 3.2 0.00 0.00 0.00 72 1017.5
20260503034529 8 66 0.0 6.4 0.00 0.00 0.00 75 1017.6
20260503033011 8 71 3.2 12.9 0.00 0.00 0.00 76 1017.7
20260503031523 8 105 0.0 4.8 0.00 0.00 0.00 82 1017.9
20260503030127 8 68 0.0 3.2 0.00 0.00 0.00 83 1017.8
20260503030000 8 68 0.0 3.2 0.00 0.00 0.00 83 1017.8
20260503024512 8 16 0.0 9.7 0.00 0.00 0.00 83 1017.9
20260503023045 8 40 0.0 4.8 0.00 0.00 0.00 79 1018.0
20260503021606 8 66 4.8 9.7 0.00 0.00 0.00 77 1018.0
20260503021505 8 66 4.8 9.7 0.00 0.00 0.00 77 1018.1